Simultaneous Nadir Overpasses (SNOs) Predictions

Prediction of SNOs between GOES-16 and AQUA Satellite Orbit:

Table of predicted SNOs for the next 14.0 days since TLE Epoch: 3/16/2017
Index Date Time (GOES-16) GOES-16 Lat,Lon AQUA Lat,Lon Distance(km) Time Diff (sec)
1 03/17/2017 07:25:34 -0.00, -89.49 -0.37, -87.85 186.22 80
2 03/17/2017 19:46:59 0.00, -89.49 -0.74, -93.04 403.84 80
3 03/19/2017 19:34:50 0.00, -89.52 -0.12, -90.10 65.94 80
4 03/21/2017 19:25:21 -0.00, -89.54 0.50, -87.15 272.17 80
5 03/22/2017 07:46:37 0.00, -89.55 0.60, -92.30 313.13 80
6 03/24/2017 07:31:48 0.00, -89.58 -0.02, -89.36 25.28 80
7 03/26/2017 07:19:39 0.00, -89.61 -0.65, -86.41 363.77 80
8 03/26/2017 19:41:04 -0.00, -89.62 -0.43, -91.61 226.57 80
9 03/28/2017 19:31:35 -0.00, -89.65 0.21, -88.66 112.49 80
10 03/29/2017 07:52:51 0.00, -89.67 0.90, -93.82 471.91 80
11 03/30/2017 19:19:26 -0.00, -89.69 0.85, -85.72 451.68 80




NCC Satellite Simultaneous Nadir Overpasses (SNOs) Prediction Service
